Back to catalog

COSMOS 397 DEB *

AliveLEO
NORAD 14446·DEBRIS·🇷🇺 Russia

Launched Feb 25, 1971 from Baikonur Cosmodrome

Loading…

Next Passes (next 24 hours)

TLE

FreshSource: Space-Track

Epoch: Sep 12, 2026, 23:25 UTC

1 14446U 71015CQ  26255.97590544  .00000278  00000-0  43818-3 0  9990
2 14446  65.5694  96.0103 0048248 100.6006  50.2388 13.65150887656393

Track COSMOS 397 DEB * in real time with AllMySat

Download on the App Store